Find Gao Fen 14-02

NORAD ID: 66175 Int'l Des: 2025-242 Owner: YWZB Country: CN operational
LEOCIRCULARRETROGRADESSO

現在のビュー

3D地球を読み込み中...

Gao Fen 14-02について

説明を読み込み中...

次回通過

Passes for default location (London). Set your location on the main map for personalized predictions.

高度履歴

Loading altitude history...

軌道要素

1 66175U 25242A 26159.19780958 .00005374 00000-0 21680-3 0 9999
2 66175 97.4118 234.8443 0000558 115.6624 244.4672 15.25226135 34321
Epoch: Jun 8, 2026 • Age: 4 hours

現在のステータス

高度 509.6 km
速度 7.61 km/s
衛星直下点 -49.78°S, 15.92°E
打ち上げ日 Oct 26, 2025
運用期間 0.6 years
タイプ other

技術仕様

分類 Payload
質量 6500.00 kg
乾燥質量 5500.00 kg
総質量 6500.00 kg
長さ 6.00 m
直径 2.50 m
スパン 15.00 m
形状 Box + 2 Pan
製造者 CAST
バスタイプ GF-14
フェーズステータス In Orbit
所有者/国 YWZB/CN

Most Searched